This is the latest recevied weather packets stored in our database for station/object N8SHA. If no packets are shown the sender has not sent any weather packets the latest 10 day(s).
| Time | Temp. | Humidity | Pressure | Rain* | Wind** | Luminosity | Snow |
|---|---|---|---|---|---|---|---|
| 1777223940 | 16.67° C | 59% | 1020.9 hPa | 0 mm | - | 688 W/m² | - |
| 1777223637 | 16.67° C | 57% | 1020.9 hPa | 0 mm | - | 757 W/m² | - |
| 1777223333 | 16.67° C | 56% | 1021.1 hPa | 0 mm | - | 729 W/m² | - |
| 1777223031 | 16.11° C | 56% | 1021.1 hPa | 0 mm | - | 680 W/m² | - |
| 1777222728 | 16.67° C | 58% | 1020.9 hPa | 0 mm | - | 741 W/m² | - |
| 1777222425 | 16.11° C | 55% | 1021.1 hPa | 0 mm | - | 725 W/m² | - |
| 1777222123 | 16.11° C | 59% | 1021.1 hPa | 0 mm | - | 702 W/m² | - |
| 1777221819 | 16.11° C | 55% | 1021.1 hPa | 0 mm | - | 557 W/m² | - |
| 1777221515 | 15.56° C | 59% | 1021.2 hPa | 0 mm | - | 710 W/m² | - |
| 1777221213 | 15.56° C | 58% | 1021.3 hPa | 0 mm | - | 700 W/m² | - |
| 1777220909 | 15.56° C | 56% | 1021.4 hPa | 0 mm | - | 720 W/m² | - |
| 1777220604 | 15.56° C | 56% | 1021.3 hPa | 0 mm | - | 736 W/m² | - |
| 1777220301 | 15° C | 61% | 1021.4 hPa | 0 mm | - | 644 W/m² | - |
| 1777219995 | 15° C | 61% | 1021.6 hPa | 0 mm | - | 669 W/m² | - |
| 1777219693 | 14.44° C | 59% | 1021.3 hPa | 0 mm | - | 594 W/m² | - |
| 1777219390 | 14.44° C | 62% | 1021.5 hPa | 0 mm | - | 697 W/m² | - |
| 1777219087 | 15° C | 60% | 1021.5 hPa | 0 mm | - | 480 W/m² | - |
| 1777218782 | 15° C | 60% | 1021.7 hPa | 0 mm | - | 554 W/m² | - |
| 1777218477 | 14.44° C | 64% | 1021.6 hPa | 0 mm | - | 617 W/m² | - |
| 1777218173 | 14.44° C | 57% | 1021.6 hPa | 0 mm | - | 625 W/m² | - |
| 1777217870 | 14.44° C | 63% | 1021.5 hPa | 0 mm | - | 626 W/m² | - |
| 1777217565 | 14.44° C | 61% | 1021.5 hPa | 0 mm | - | 680 W/m² | - |
| 1777217262 | 13.89° C | 63% | 1021.5 hPa | 0 mm | - | 664 W/m² | - |
| 1777216958 | 13.89° C | 64% | 1021.7 hPa | 0 mm | - | 370 W/m² | - |
| 1777216654 | 13.89° C | 66% | 1021.5 hPa | 0 mm | - | 555 W/m² | - |
* Rain latest hour (hover to see other rain measurements)
** Current wind speed in m/s (hover to see current wind gust speed)